| time (UTC) | temp C | wind direction | speed KPH | gust KPH | rain 1hr cm | rain 24hr cm | rain mn cm | humidity % | barometer mb |
| 20260506004700 | 8 | 281 | 8.0 | 12.9 | 0.00 | 2.16 | 2.16 | 92 | 1009.9 |
| 20260506004159 | 8 | 222 | 4.8 | 8.0 | 0.00 | 2.16 | 2.16 | 92 | 1010.0 |
| 20260506003654 | 8 | 323 | 3.2 | 4.8 | 0.00 | 2.16 | 2.16 | 91 | 1009.7 |
| 20260506003151 | 8 | 263 | 1.6 | 4.8 | 0.00 | 2.16 | 2.16 | 91 | 1009.9 |
| 20260506002646 | 8 | 319 | 4.8 | 8.0 | 0.00 | 2.16 | 2.16 | 90 | 1010.0 |
| 20260506002143 | 8 | 279 | 3.2 | 4.8 | 0.00 | 2.16 | 2.16 | 90 | 1010.0 |
| 20260506001638 | 8 | 132 | 12.9 | 16.1 | 0.00 | 2.16 | 2.16 | 90 | 1010.0 |
| 20260506001136 | 8 | 254 | 3.2 | 4.8 | 0.00 | 2.16 | 2.16 | 90 | 1009.7 |
| 20260506000633 | 8 | 87 | 3.2 | 4.8 | 0.00 | 2.16 | 2.16 | 89 | 1009.9 |
| 20260506000131 | 8 | 41 | 6.4 | 8.0 | 0.00 | 2.16 | 2.16 | 88 | 1010.0 |
| 20260505235629 | 8 | 62 | 4.8 | 6.4 | 0.00 | 2.16 | 2.16 | 88 | 1009.9 |
| 20260505235125 | 8 | 2 | 4.8 | 6.4 | 0.00 | 2.16 | 2.16 | 89 | 1009.9 |
| 20260505234622 | 8 | 47 | 9.7 | 16.1 | 0.00 | 2.16 | 2.16 | 88 | 1009.4 |
| 20260505234119 | 8 | 117 | 12.9 | 19.3 | 0.00 | 2.16 | 2.16 | 88 | 1009.6 |
| 20260505233617 | 8 | 254 | 0.0 | 1.6 | 0.00 | 2.16 | 2.16 | 88 | 1009.4 |
| 20260505233114 | 8 | 192 | 3.2 | 4.8 | 0.00 | 2.16 | 2.16 | 88 | 1009.5 |
| 20260505232612 | 8 | 64 | 11.3 | 17.7 | 0.00 | 2.16 | 2.16 | 87 | 1009.1 |
| 20260505232109 | 8 | 12 | 8.0 | 12.9 | 0.00 | 2.16 | 2.16 | 88 | 1009.1 |
| 20260505231606 | 9 | 184 | 4.8 | 8.0 | 0.00 | 2.16 | 2.16 | 87 | 1008.9 |
| 20260505231104 | 9 | 128 | 3.2 | 4.8 | 0.00 | 2.16 | 2.16 | 86 | 1009.0 |
| 20260505230602 | 9 | 196 | 3.2 | 4.8 | 0.00 | 2.16 | 2.16 | 86 | 1009.2 |
| 20260505230058 | 9 | 213 | 0.0 | 1.6 | 0.00 | 2.16 | 2.16 | 85 | 1009.0 |
| 20260505225555 | 9 | 341 | 8.0 | 11.3 | 0.00 | 2.16 | 2.16 | 85 | 1009.2 |
| 20260505225050 | 9 | 301 | 1.6 | 1.6 | 0.00 | 2.16 | 2.16 | 84 | 1009.0 |
| 20260505224548 | 9 | 248 | 1.6 | 1.6 | 0.00 | 2.16 | 2.16 | 84 | 1009.0 |
| 20260505224045 | 9 | 337 | 6.4 | 6.4 | 0.00 | 2.16 | 2.16 | 84 | 1009.0 |
| 20260505223542 | 10 | 283 | 3.2 | 6.4 | 0.00 | 2.16 | 2.16 | 85 | 1008.7 |
| 20260505223038 | 10 | 73 | 0.0 | 1.6 | 0.00 | 2.16 | 2.16 | 84 | 1008.9 |
| 20260505222534 | 10 | 308 | 3.2 | 4.8 | 0.00 | 2.16 | 2.16 | 84 | 1008.4 |
| 20260505222031 | 10 | 207 | 0.0 | 1.6 | 0.00 | 2.16 | 2.16 | 84 | 1008.4 |
| 20260505221528 | 10 | 335 | 4.8 | 6.4 | 0.00 | 2.16 | 2.16 | 83 | 1008.5 |
| 20260505221024 | 10 | 1 | 8.0 | 12.9 | 0.00 | 2.16 | 2.16 | 84 | 1008.4 |
| 20260505220522 | 10 | 60 | 3.2 | 6.4 | 0.00 | 2.16 | 2.16 | 84 | 1008.4 |
| 20260505220020 | 10 | 2 | 9.7 | 12.9 | 0.00 | 2.16 | 2.16 | 86 | 1008.5 |
| 20260505215518 | 10 | 174 | 6.4 | 8.0 | 0.00 | 2.16 | 2.16 | 85 | 1008.7 |
| 20260505215015 | 10 | 57 | 12.9 | 17.7 | 0.00 | 2.16 | 2.16 | 85 | 1008.7 |
| 20260505214513 | 10 | 227 | 4.8 | 6.4 | 0.00 | 2.16 | 2.16 | 86 | 1008.5 |
| 20260505214009 | 10 | 112 | 6.4 | 11.3 | 0.00 | 2.16 | 2.16 | 86 | 1008.4 |
| 20260505213508 | 10 | 305 | 1.6 | 1.6 | 0.00 | 2.16 | 2.16 | 87 | 1008.4 |
| 20260505213004 | 10 | 102 | 3.2 | 4.8 | 0.00 | 2.16 | 2.16 | 87 | 1008.2 |
| 20260505212500 | 10 | 71 | 9.7 | 12.9 | 0.00 | 2.16 | 2.16 | 85 | 1008.3 |
| 20260505211957 | 10 | 262 | 3.2 | 4.8 | 0.00 | 2.16 | 2.16 | 86 | 1008.3 |
| 20260505211454 | 10 | 287 | 6.4 | 8.0 | 0.00 | 2.16 | 2.16 | 87 | 1008.2 |
| 20260505210950 | 10 | 158 | 12.9 | 17.7 | 0.00 | 2.16 | 2.16 | 88 | 1008.2 |
| 20260505210448 | 10 | 43 | 17.7 | 24.1 | 0.00 | 2.16 | 2.16 | 89 | 1008.4 |
| 20260505205944 | 10 | 203 | 3.2 | 4.8 | 0.00 | 2.16 | 2.16 | 90 | 1008.3 |
| 20260505205443 | 10 | 49 | 3.2 | 6.4 | 0.00 | 2.16 | 2.16 | 90 | 1008.4 |
| 20260505204939 | 10 | 35 | 8.0 | 11.3 | 0.00 | 2.16 | 2.16 | 89 | 1008.3 |
| 20260505204437 | 10 | 304 | 6.4 | 6.4 | 0.00 | 2.16 | 2.16 | 88 | 1008.5 |
| 20260505203934 | 10 | 82 | 3.2 | 4.8 | 0.00 | 2.16 | 2.16 | 88 | 1008.4 |
| 20260505203431 | 10 | 322 | 1.6 | 4.8 | 0.00 | 2.16 | 2.16 | 88 | 1008.5 |
| 20260505202927 | 10 | 324 | 8.0 | 12.9 | 0.00 | 2.16 | 2.16 | 88 | 1008.5 |
| 20260505202423 | 10 | 251 | 8.0 | 11.3 | 0.00 | 2.16 | 2.16 | 88 | 1008.2 |
| 20260505201920 | 10 | 189 | 8.0 | 8.0 | 0.00 | 2.16 | 2.16 | 89 | 1008.0 |
| 20260505201417 | 10 | 280 | 8.0 | 11.3 | 0.00 | 2.16 | 2.16 | 89 | 1008.1 |
| 20260505200915 | 10 | 42 | 8.0 | 11.3 | 0.00 | 2.16 | 2.16 | 90 | 1008.2 |
| 20260505200412 | 10 | 18 | 8.0 | 11.3 | 0.00 | 2.16 | 2.16 | 90 | 1008.3 |
| 20260505195907 | 10 | 264 | 8.0 | 12.9 | 0.00 | 2.16 | 2.16 | 90 | 1008.3 |
| 20260505195405 | 11 | 263 | 0.0 | 1.6 | 0.00 | 2.16 | 2.16 | 91 | 1007.8 |
| 20260505194902 | 11 | 281 | 11.3 | 16.1 | 0.00 | 2.16 | 2.16 | 91 | 1008.0 |
| 20260505194400 | 11 | 126 | 3.2 | 4.8 | 0.00 | 2.16 | 2.16 | 91 | 1008.0 |
| 20260505193900 | 11 | 60 | 1.6 | 4.8 | 0.00 | 2.16 | 2.16 | 90 | 1008.1 |
| 20260505193358 | 11 | 263 | 4.8 | 6.4 | 0.00 | 2.16 | 2.16 | 89 | 1008.1 |
| 20260505192855 | 11 | 221 | 3.2 | 6.4 | 0.00 | 2.16 | 2.16 | 90 | 1008.1 |
| 20260505192354 | 11 | 290 | 4.8 | 11.3 | 0.00 | 2.16 | 2.16 | 89 | 1007.8 |
| 20260505191851 | 11 | 334 | 6.4 | 8.0 | 0.00 | 2.16 | 2.16 | 89 | 1007.9 |
| 20260505191349 | 11 | 296 | 4.8 | 8.0 | 0.00 | 2.16 | 2.16 | 89 | 1007.5 |
| 20260505190846 | 11 | 109 | 8.0 | 17.7 | 0.00 | 2.16 | 2.16 | 88 | 1007.5 |
| 20260505190341 | 11 | 199 | 4.8 | 8.0 | 0.00 | 2.16 | 2.16 | 88 | 1007.6 |
| 20260505185837 | 11 | 295 | 6.4 | 8.0 | 0.00 | 2.16 | 2.16 | 88 | 1007.5 |
| 20260505185334 | 11 | 235 | 1.6 | 1.6 | 0.00 | 2.16 | 2.16 | 88 | 1007.7 |
| 20260505184830 | 11 | 337 | 9.7 | 12.9 | 0.00 | 2.16 | 2.16 | 89 | 1007.4 |
| 20260505184327 | 11 | 242 | 0.0 | 1.6 | 0.00 | 2.16 | 2.16 | 90 | 1007.8 |
| 20260505183824 | 11 | 26 | 8.0 | 16.1 | 0.00 | 2.16 | 2.16 | 88 | 1007.8 |
| 20260505183321 | 11 | 222 | 3.2 | 4.8 | 0.00 | 2.16 | 2.16 | 89 | 1008.0 |
| 20260505182818 | 11 | 180 | 4.8 | 6.4 | 0.00 | 2.16 | 2.16 | 89 | 1007.7 |
| 20260505182314 | 12 | 8 | 9.7 | 11.3 | 0.00 | 2.16 | 2.16 | 89 | 1007.7 |
| 20260505181811 | 12 | 322 | 3.2 | 6.4 | 0.00 | 2.16 | 2.16 | 89 | 1007.5 |
| 20260505181309 | 12 | 294 | 4.8 | 8.0 | 0.00 | 2.16 | 2.16 | 89 | 1007.4 |
| 20260505180805 | 12 | 140 | 3.2 | 6.4 | 0.00 | 2.16 | 2.16 | 90 | 1007.2 |
| 20260505180301 | 12 | 29 | 6.4 | 8.0 | 0.13 | 2.16 | 2.16 | 90 | 1007.2 |
| 20260505175758 | 12 | 56 | 8.0 | 11.3 | 0.13 | 2.16 | 2.16 | 90 | 1006.9 |
| 20260505175254 | 12 | 124 | 8.0 | 8.0 | 0.00 | 2.13 | 2.13 | 90 | 1007.4 |
| 20260505174751 | 12 | 111 | 14.5 | 17.7 | 0.00 | 2.13 | 2.13 | 90 | 1007.1 |
| 20260505174248 | 12 | 123 | 8.0 | 12.9 | 0.00 | 2.13 | 2.13 | 90 | 1007.3 |
| 20260505173744 | 12 | 70 | 4.8 | 8.0 | 0.00 | 2.13 | 2.13 | 91 | 1007.2 |
| 20260505173241 | 12 | 266 | 3.2 | 4.8 | 0.00 | 2.13 | 2.13 | 91 | 1007.3 |
| 20260505172738 | 12 | 36 | 6.4 | 11.3 | 0.00 | 2.13 | 2.13 | 91 | 1007.1 |
| 20260505172235 | 12 | 108 | 4.8 | 6.4 | 0.00 | 2.13 | 2.13 | 92 | 1007.0 |
| 20260505171735 | 12 | 16 | 8.0 | 11.3 | 0.00 | 2.13 | 2.13 | 92 | 1006.9 |
| 20260505171232 | 12 | 256 | 8.0 | 12.9 | 0.00 | 2.13 | 2.13 | 92 | 1007.1 |
| 20260505170729 | 12 | 123 | 9.7 | 12.9 | 0.00 | 2.13 | 2.13 | 92 | 1006.9 |
| 20260505170226 | 12 | 283 | 4.8 | 6.4 | 0.00 | 2.13 | 2.13 | 92 | 1007.0 |
| 20260505165721 | 12 | 20 | 6.4 | 8.0 | 0.00 | 2.13 | 2.13 | 92 | 1007.0 |
| 20260505165217 | 12 | 268 | 4.8 | 4.8 | 0.00 | 2.13 | 2.13 | 93 | 1007.1 |
| 20260505164713 | 12 | 89 | 4.8 | 6.4 | 0.00 | 2.13 | 2.13 | 93 | 1006.8 |
| 20260505164210 | 12 | 47 | 11.3 | 16.1 | 0.00 | 2.13 | 2.13 | 93 | 1007.0 |
| 20260505163708 | 12 | 32 | 1.6 | 1.6 | 0.00 | 2.13 | 2.13 | 93 | 1006.8 |
| 20260505163206 | 12 | 31 | 4.8 | 6.4 | 0.00 | 2.13 | 2.13 | 93 | 1007.0 |
| 20260505162703 | 12 | 318 | 1.6 | 4.8 | 0.00 | 2.13 | 2.13 | 93 | 1006.9 |
| 20260505162201 | 12 | 223 | 3.2 | 6.4 | 0.00 | 2.13 | 2.13 | 93 | 1006.8 |
| 20260505161657 | 12 | 59 | 8.0 | 12.9 | 0.00 | 2.13 | 2.13 | 93 | 1006.9 |
| 20260505161154 | 12 | 44 | 3.2 | 8.0 | 0.00 | 2.13 | 2.13 | 93 | 1006.9 |
| 20260505160652 | 12 | 0 | 12.9 | 17.7 | 0.00 | 2.13 | 2.13 | 93 | 1006.6 |
| 20260505160150 | 13 | 348 | 6.4 | 16.1 | 0.00 | 2.13 | 2.13 | 95 | 1006.4 |
| 20260505153129 | 13 | 314 | 1.6 | 1.6 | 0.00 | 2.13 | 2.13 | 95 | 1006.3 |
| 20260505152625 | 13 | 284 | 4.8 | 6.4 | 0.00 | 2.13 | 2.13 | 95 | 1006.2 |
| 20260505152121 | 13 | 134 | 8.0 | 8.0 | 0.00 | 2.13 | 2.13 | 95 | 1006.2 |
| 20260505151617 | 14 | 71 | 0.0 | 1.6 | 0.00 | 2.13 | 2.13 | 95 | 1006.1 |
| 20260505151114 | 14 | 287 | 1.6 | 1.6 | 0.00 | 2.13 | 2.13 | 96 | 1006.1 |
| 20260505150610 | 14 | 231 | 0.0 | 1.6 | 0.00 | 2.13 | 2.13 | 96 | 1006.1 |
| 20260505150108 | 14 | 345 | 6.4 | 8.0 | 0.00 | 2.13 | 2.13 | 96 | 1005.9 |
| 20260505140536 | 15 | 81 | 1.6 | 1.6 | 0.00 | 2.13 | 2.13 | 99 | 1005.9 |
| 20260505124949 | 15 | 102 | 1.6 | 1.6 | 0.00 | 2.13 | 2.13 | 99 | 1005.7 |
| 20260505124446 | 15 | 78 | 0.0 | 0.0 | 0.00 | 2.13 | 2.13 | 99 | 1005.6 |
| 20260505123942 | 15 | 195 | 3.2 | 4.8 | 0.18 | 2.13 | 2.13 | 99 | 1005.6 |
| 20260505123439 | 15 | 18 | 1.6 | 1.6 | 0.18 | 2.13 | 2.13 | 99 | 1005.7 |
| 20260505122935 | 15 | 340 | 0.0 | 1.6 | 0.00 | 2.11 | 2.11 | 99 | 1005.6 |
| 20260505122432 | 15 | 265 | 1.6 | 1.6 | 0.00 | 2.11 | 2.11 | 99 | 1005.6 |
| 20260505121929 | 15 | 291 | 0.0 | 0.0 | 0.00 | 2.11 | 2.11 | 99 | 1005.3 |
| 20260505121426 | 15 | 64 | 3.2 | 6.4 | 0.13 | 2.11 | 2.11 | 99 | 1005.0 |
| 20260505120922 | 15 | 201 | 3.2 | 4.8 | 0.13 | 2.11 | 2.11 | 99 | 1005.2 |
| 20260505120418 | 15 | 239 | 0.0 | 0.0 | 0.00 | 2.08 | 2.08 | 99 | 1005.0 |
| 20260505115917 | 15 | 215 | 0.0 | 1.6 | 0.00 | 2.08 | 2.08 | 99 | 1005.0 |
| 20260505115414 | 15 | 305 | 0.0 | 0.0 | 0.00 | 2.08 | 2.08 | 99 | 1005.3 |
| 20260505114912 | 15 | 285 | 1.6 | 4.8 | 0.00 | 2.08 | 2.08 | 99 | 1004.9 |
| 20260505114408 | 15 | 104 | 6.4 | 11.3 | 0.00 | 2.08 | 2.08 | 99 | 1004.7 |
| 20260505113905 | 15 | 342 | 1.6 | 1.6 | 0.00 | 2.08 | 2.08 | 99 | 1004.7 |
| 20260505113402 | 15 | 292 | 1.6 | 1.6 | 0.00 | 2.08 | 2.08 | 99 | 1004.8 |
| 20260505112857 | 16 | 220 | 4.8 | 6.4 | 0.00 | 2.08 | 2.08 | 99 | 1004.7 |
| 20260505112355 | 15 | 7 | 1.6 | 1.6 | 0.00 | 2.08 | 2.08 | 99 | 1004.4 |
| 20260505111850 | 16 | 258 | 0.0 | 0.0 | 0.00 | 2.08 | 2.08 | 99 | 1004.4 |
| 20260505111346 | 16 | 313 | 1.6 | 1.6 | 0.00 | 2.08 | 2.08 | 99 | 1004.4 |
| 20260505110842 | 15 | 329 | 3.2 | 4.8 | 0.00 | 2.08 | 2.08 | 99 | 1004.5 |
| 20260505110340 | 16 | 273 | 1.6 | 1.6 | 0.00 | 2.08 | 2.08 | 99 | 1004.5 |
| 20260505101815 | 16 | 200 | 6.4 | 8.0 | 0.00 | 2.08 | 2.08 | 99 | 1004.4 |
| 20260505101310 | 16 | 204 | 3.2 | 4.8 | 0.00 | 2.08 | 2.08 | 99 | 1004.4 |
| 20260505100806 | 16 | 343 | 0.0 | 1.6 | 0.00 | 2.08 | 2.08 | 99 | 1004.5 |
| 20260505100303 | 16 | 202 | 4.8 | 4.8 | 0.00 | 2.08 | 2.08 | 99 | 1004.5 |
| 20260505095759 | 16 | 164 | 3.2 | 6.4 | 0.00 | 2.08 | 2.08 | 99 | 1004.5 |
| 20260505095257 | 16 | 172 | 3.2 | 4.8 | 0.00 | 2.08 | 2.08 | 99 | 1004.4 |
| 20260505094752 | 16 | 200 | 0.0 | 0.0 | 0.00 | 2.08 | 2.08 | 99 | 1004.6 |
| 20260505094249 | 16 | 205 | 6.4 | 6.4 | 0.00 | 2.08 | 2.08 | 99 | 1004.9 |
| 20260505093744 | 16 | 206 | 4.8 | 6.4 | 0.00 | 2.08 | 2.08 | 99 | 1005.0 |
| 20260505093242 | 16 | 208 | 3.2 | 4.8 | 0.18 | 2.08 | 2.08 | 99 | 1005.0 |
| 20260505092739 | 16 | 161 | 3.2 | 4.8 | 0.30 | 2.08 | 2.08 | 99 | 1005.0 |
| 20260505092238 | 16 | 183 | 4.8 | 4.8 | 0.13 | 2.06 | 2.06 | 99 | 1005.4 |
| 20260505091734 | 16 | 337 | 3.2 | 4.8 | 0.00 | 2.03 | 2.03 | 99 | 1005.4 |
| 20260505091233 | 16 | 270 | 3.2 | 4.8 | 0.00 | 2.03 | 2.03 | 98 | 1005.3 |
| 20260505090730 | 16 | 212 | 3.2 | 4.8 | 0.18 | 2.03 | 2.03 | 98 | 1005.3 |
| 20260505090228 | 16 | 146 | 1.6 | 1.6 | 0.18 | 2.03 | 2.03 | 98 | 1005.2 |
| 20260505085725 | 16 | 132 | 4.8 | 6.4 | 0.13 | 2.01 | 2.01 | 98 | 1005.2 |
| 20260505085223 | 16 | 202 | 3.2 | 4.8 | 0.30 | 2.01 | 2.01 | 98 | 1005.1 |
| 20260505084720 | 16 | 205 | 3.2 | 4.8 | 0.48 | 1.98 | 1.98 | 98 | 1004.9 |
| 20260505084219 | 16 | 52 | 1.6 | 6.4 | 0.30 | 1.96 | 1.96 | 98 | 1005.0 |
| 20260505083716 | 16 | 160 | 6.4 | 8.0 | 0.30 | 1.91 | 1.91 | 98 | 1005.1 |
| 20260505083213 | 16 | 239 | 0.0 | 1.6 | 0.30 | 1.91 | 1.91 | 98 | 1005.0 |
| 20260505082708 | 16 | 304 | 1.6 | 1.6 | 0.00 | 1.85 | 1.85 | 98 | 1005.4 |
| 20260505082206 | 16 | 179 | 6.4 | 6.4 | 1.07 | 1.85 | 1.85 | 98 | 1005.7 |
| 20260505081701 | 16 | 221 | 1.6 | 1.6 | 1.98 | 1.85 | 1.85 | 98 | 1005.7 |
| 20260505081159 | 16 | 258 | 0.0 | 0.0 | 1.37 | 1.70 | 1.70 | 98 | 1005.6 |
| 20260505080656 | 16 | 165 | 3.2 | 4.8 | 0.48 | 1.52 | 1.52 | 98 | 1005.9 |
| 20260505080152 | 16 | 227 | 1.6 | 1.6 | 0.61 | 1.47 | 1.47 | 98 | 1006.3 |
| 20260505075648 | 16 | 279 | 3.2 | 4.8 | 0.61 | 1.45 | 1.45 | 97 | 1006.4 |
| 20260505075145 | 16 | 348 | 3.2 | 4.8 | 0.18 | 1.35 | 1.35 | 97 | 1005.2 |
| 20260505074642 | 16 | 227 | 1.6 | 1.6 | 0.48 | 1.35 | 1.35 | 97 | 1005.6 |
| 20260505074139 | 16 | 127 | 0.0 | 1.6 | 0.30 | 1.32 | 1.32 | 97 | 1005.1 |
| 20260505073637 | 16 | 103 | 1.6 | 1.6 | 0.30 | 1.27 | 1.27 | 97 | 1005.7 |
| 20260505073135 | 16 | 221 | 1.6 | 1.6 | 0.43 | 1.27 | 1.27 | 97 | 1005.9 |
| 20260505072630 | 16 | 167 | 3.2 | 4.8 | 0.48 | 1.24 | 1.24 | 97 | 1005.8 |
| 20260505072127 | 16 | 121 | 3.2 | 4.8 | 0.30 | 1.19 | 1.19 | 97 | 1006.4 |
| 20260505071622 | 16 | 263 | 0.0 | 1.6 | 0.61 | 1.17 | 1.17 | 96 | 1007.1 |
| 20260505071120 | 16 | 284 | 1.6 | 1.6 | 1.27 | 1.14 | 1.14 | 96 | 1006.5 |
| 20260505070617 | 16 | 204 | 0.0 | 1.6 | 1.50 | 1.07 | 1.07 | 96 | 1006.3 |
| 20260505070113 | 16 | 232 | 1.6 | 1.6 | 1.50 | 0.97 | 0.97 | 96 | 1007.5 |
| 20260505065609 | 16 | 291 | 0.0 | 1.6 | 1.37 | 0.81 | 0.81 | 96 | 1007.6 |
| 20260505065106 | 16 | 285 | 1.6 | 1.6 | 1.07 | 0.69 | 0.69 | 95 | 1007.8 |
| 20260505064603 | 16 | 280 | 3.2 | 4.8 | 1.68 | 0.61 | 0.61 | 95 | 1007.2 |
| 20260505064102 | 16 | 284 | 3.2 | 6.4 | 1.98 | 0.51 | 0.51 | 94 | 1007.3 |
| 20260505063558 | 16 | 295 | 3.2 | 4.8 | 0.89 | 0.30 | 0.30 | 93 | 1007.5 |
| 20260505063054 | 16 | 292 | 3.2 | 4.8 | 0.30 | 0.18 | 0.18 | 93 | 1007.3 |
| 20260505062551 | 16 | 340 | 4.8 | 4.8 | 0.48 | 0.15 | 0.15 | 91 | 1006.5 |
| 20260505062048 | 16 | 274 | 0.0 | 1.6 | 0.48 | 0.13 | 0.13 | 90 | 1005.9 |
| 20260505061546 | 16 | 170 | 6.4 | 8.0 | 0.48 | 0.10 | 0.10 | 89 | 1005.2 |
| 20260505061043 | 17 | 107 | 4.8 | 6.4 | 0.13 | 0.05 | 0.05 | 86 | 1005.6 |
| 20260505060541 | 17 | 229 | 6.4 | 6.4 | 0.00 | 0.03 | 0.03 | 82 | 1005.5 |
| 20260505060037 | 17 | 211 | 1.6 | 1.6 | 0.18 | 0.03 | 0.03 | 81 | 1005.1 |
| 20260505055532 | 17 | 196 | 8.0 | 11.3 | 0.18 | 0.03 | 0.03 | 80 | 1005.0 |
| 20260505055030 | 18 | 185 | 4.8 | 8.0 | 0.00 | 0.00 | 0.00 | 79 | 1004.5 |
| 20260505054527 | 18 | 85 | 1.6 | 4.8 | 0.00 | 0.00 | 0.00 | 79 | 1004.5 |
| 20260505054025 | 18 | 292 | 1.6 | 4.8 | 0.00 | 0.00 | 0.00 | 78 | 1004.6 |
| 20260505053522 | 18 | 173 | 8.0 | 8.0 | 0.00 | 0.00 | 0.00 | 76 | 1004.9 |
| 20260505053018 | 18 | 220 | 3.2 | 4.8 | 0.00 | 0.00 | 0.00 | 75 | 1005.0 |
| 20260505052516 | 18 | 84 | 3.2 | 4.8 | 0.00 | 0.00 | 0.00 | 73 | 1005.0 |
| 20260505052013 | 19 | 88 | 3.2 | 6.4 | 0.00 | 0.00 | 0.00 | 74 | 1005.4 |
| 20260505051509 | 19 | 145 | 9.7 | 11.3 | 0.00 | 0.00 | 0.00 | 70 | 1005.3 |
| 20260505051008 | 19 | 212 | 3.2 | 6.4 | 0.00 | 0.00 | 0.00 | 69 | 1005.6 |
| 20260505050506 | 19 | 204 | 11.3 | 12.9 | 0.00 | 0.00 | 0.00 | 69 | 1005.2 |
| 20260505041433 | 20 | 45 | 6.4 | 8.0 | 0.00 | 0.00 | 0.00 | 68 | 1005.1 |
| 20260505040931 | 20 | 157 | 9.7 | 12.9 | 0.00 | 0.00 | 0.00 | 68 | 1005.3 |
| 20260505040428 | 20 | 156 | 4.8 | 6.4 | 0.00 | 0.00 | 0.00 | 69 | 1005.3 |
| 20260505035924 | 19 | 157 | 3.2 | 4.8 | 0.00 | 0.00 | 0.00 | 69 | 1005.5 |
| 20260505035421 | 19 | 195 | 4.8 | 8.0 | 0.00 | 0.00 | 0.00 | 71 | 1005.5 |
| 20260505034918 | 19 | 152 | 6.4 | 8.0 | 0.00 | 0.00 | 0.00 | 70 | 1005.6 |
| 20260505034414 | 19 | 185 | 1.6 | 1.6 | 0.00 | 0.00 | 0.00 | 71 | 1005.9 |
| 20260505033912 | 19 | 196 | 3.2 | 4.8 | 0.00 | 0.00 | 0.00 | 71 | 1005.8 |
| 20260505033408 | 19 | 194 | 3.2 | 4.8 | 0.00 | 0.00 | 0.00 | 71 | 1005.9 |
| 20260505032907 | 19 | 225 | 0.0 | 1.6 | 0.00 | 0.00 | 0.00 | 71 | 1006.1 |
| 20260505032402 | 19 | 200 | 3.2 | 6.4 | 0.00 | 0.00 | 0.00 | 72 | 1006.1 |
| 20260505031859 | 19 | 215 | 0.0 | 1.6 | 0.00 | 0.00 | 0.00 | 71 | 1006.0 |
| 20260505031356 | 20 | 233 | 0.0 | 0.0 | 0.00 | 0.00 | 0.00 | 70 | 1005.9 |
| 20260505030854 | 19 | 191 | 3.2 | 4.8 | 0.00 | 0.00 | 0.00 | 70 | 1005.9 |
| 20260505030349 | 19 | 203 | 1.6 | 1.6 | 0.00 | 0.00 | 0.00 | 71 | 1006.0 |
| 20260505025845 | 19 | 196 | 3.2 | 4.8 | 0.00 | 0.00 | 0.00 | 70 | 1005.9 |
| 20260505025343 | 19 | 196 | 1.6 | 1.6 | 0.00 | 0.00 | 0.00 | 70 | 1006.1 |
| 20260505024841 | 19 | 190 | 3.2 | 4.8 | 0.00 | 0.00 | 0.00 | 70 | 1005.8 |
| 20260505024339 | 18 | 221 | 1.6 | 1.6 | 0.00 | 0.00 | 0.00 | 71 | 1005.9 |
| 20260505023835 | 18 | 176 | 1.6 | 1.6 | 0.00 | 0.00 | 0.00 | 73 | 1005.8 |
| 20260505023332 | 19 | 230 | 0.0 | 0.0 | 0.00 | 0.00 | 0.00 | 73 | 1005.5 |
| 20260505022830 | 20 | 198 | 0.0 | 1.6 | 0.00 | 0.00 | 0.00 | 69 | 1005.7 |
| 20260505022326 | 20 | 219 | 0.0 | 0.0 | 0.00 | 0.00 | 0.00 | 70 | 1005.6 |
| 20260505021824 | 20 | 219 | 3.2 | 4.8 | 0.00 | 0.00 | 0.00 | 69 | 1005.6 |
| 20260505021320 | 20 | 102 | 0.0 | 1.6 | 0.00 | 0.00 | 0.00 | 69 | 1005.7 |
| 20260505020816 | 20 | 210 | 1.6 | 1.6 | 0.00 | 0.00 | 0.00 | 70 | 1005.5 |
| 20260505020312 | 20 | 132 | 3.2 | 4.8 | 0.00 | 0.00 | 0.00 | 70 | 1005.7 |
| 20260505015809 | 20 | 198 | 3.2 | 4.8 | 0.00 | 0.00 | 0.00 | 68 | 1005.3 |
| 20260505015306 | 20 | 218 | 1.6 | 1.6 | 0.00 | 0.00 | 0.00 | 68 | 1005.5 |
| 20260505014803 | 20 | 182 | 3.2 | 4.8 | 0.00 | 0.00 | 0.00 | 67 | 1005.4 |
| 20260505014300 | 20 | 144 | 4.8 | 4.8 | 0.00 | 0.00 | 0.00 | 67 | 1005.4 |
| 20260505013757 | 20 | 195 | 1.6 | 1.6 | 0.00 | 0.00 | 0.00 | 67 | 1005.3 |
| 20260505013254 | 20 | 200 | 3.2 | 4.8 | 0.00 | 0.00 | 0.00 | 66 | 1005.2 |
| 20260505012752 | 20 | 234 | 1.6 | 1.6 | 0.00 | 0.00 | 0.00 | 65 | 1005.4 |
| 20260505012249 | 21 | 217 | 3.2 | 4.8 | 0.00 | 0.00 | 0.00 | 65 | 1005.5 |
| 20260505011745 | 21 | 172 | 3.2 | 4.8 | 0.00 | 0.00 | 0.00 | 64 | 1005.3 |
| 20260505011242 | 21 | 107 | 3.2 | 4.8 | 0.00 | 0.00 | 0.00 | 63 | 1005.2 |
| 20260505010738 | 21 | 145 | 1.6 | 1.6 | 0.00 | 0.00 | 0.00 | 63 | 1005.1 |
| 20260505010234 | 21 | 162 | 3.2 | 4.8 | 0.00 | 0.00 | 0.00 | 62 | 1005.2 |
| 20260505005731 | 21 | 212 | 1.6 | 4.8 | 0.00 | 0.00 | 0.00 | 61 | 1004.9 |
| 20260505005228 | 22 | 189 | 4.8 | 4.8 | 0.00 | 0.00 | 0.00 | 61 | 1005.0 |
| 20260505004725 | 22 | 166 | 4.8 | 6.4 | 0.00 | 0.00 | 0.00 | 59 | 1005.1 |